,,PA_Meas_PMT16A,,PR_Meas_QMR101_102,,RH_Meas_QMH101,,SR_Meas_QMS101,,TA_Meas_QMH101,,GenWind,,GenWind,
time,status,PA,status,PR,status,RH,status,SR,status,TA,status,DirAvg,status,SpdAvg,
2015-01-10, 00:00:04,VALID,919.667,VALID,0,VALID,97.4273,VALID,0,VALID,19.0788,VALID,3,VALID,0,
2015-01-10, 00:01:04,VALID,919.673,VALID,0,VALID,97.4196,VALID,0,VALID,19.0608,VALID,15,VALID,1.69453,
2015-01-10, 00:02:04,VALID,919.64,VALID,0,VALID,97.4196,VALID,0,VALID,19.0413,VALID,14,VALID,0.907812,
2015-01-10, 00:03:04,VALID,919.625,VALID,0,VALID,97.4501,VALID,0,VALID,19.0608,VALID,21,VALID,0.262109,
2015-01-10, 00:04:04,VALID,919.593,VALID,0,VALID,97.4654,VALID,0,VALID,19.0803,VALID,3,VALID,0.855078,
2015-01-10, 00:05:04,VALID,919.59,VALID,0,VALID,97.4806,VALID,0,VALID,19.0803,VALID,354,VALID,0.512891,
2015-01-10, 00:06:04,VALID,919.543,VALID,0,VALID,97.4806,VALID,0,VALID,19.0608,VALID,344,VALID,0.198047,
2015-01-10, 00:07:04,VALID,919.551,VALID,0,VALID,97.4806,VALID,0,VALID,19.0608,VALID,342,VALID,0.562891,
2015-01-10, 00:08:04,VALID,919.541,VALID,0,VALID,97.4654,VALID,0,VALID,19.0413,VALID,281,VALID,0.76875,
2015-01-10, 00:09:04,VALID,919.5,VALID,0,VALID,97.4425,VALID,0,VALID,19.0413,VALID,281,VALID,0.604297,
2015-01-10, 00:10:04,VALID,919.451,VALID,0,VALID,97.4273,VALID,0,VALID,19.0413,VALID,231,VALID,1.125,
2015-01-10, 00:11:04,VALID,919.455,VALID,0,VALID,97.3586,VALID,0,VALID,19.0413,VALID,263,VALID,0.787891,
2015-01-10, 00:12:04,VALID,919.404,VALID,0,VALID,97.3358,VALID,0,VALID,19.0622,VALID,266,VALID,0.520312,
2015-01-10, 00:13:04,VALID,919.372,VALID,0,VALID,97.2748,VALID,0,VALID,19.0413,VALID,237,VALID,1.7,
2015-01-10, 00:14:04,VALID,919.341,VALID,0,VALID,97.1833,VALID,0,VALID,19.0398,VALID,262,VALID,0.903516,
2015-01-10, 00:15:04,VALID,919.325,VALID,0,VALID,97.0766,VALID,0,VALID,19.0998,VALID,243,VALID,1.02305,
2015-01-10, 00:16:04,VALID,919.288,VALID,0,VALID,97.0003,VALID,0,VALID,19.0803,VALID,225,VALID,0.744922,
2015-01-10, 00:17:04,VALID,919.25,VALID,0,VALID,96.9775,VALID,0,VALID,19.1193,VALID,351,VALID,1.11523,
2015-01-10, 00:18:04,VALID,919.25,VALID,0,VALID,96.9851,VALID,0,VALID,19.1193,VALID,24,VALID,0.302344,
2015-01-10, 00:19:04,VALID,919.267,VALID,0.2,VALID,96.9927,VALID,0,VALID,19.1193,VALID,23,VALID,0.00117188,
2015-01-10, 00:20:04,VALID,919.279,VALID,0,VALID,96.9927,VALID,0,VALID,19.0998,VALID,24,VALID,0.275,
2015-01-10, 00:21:04,VALID,919.263,VALID,0,VALID,97.0003,VALID,0,VALID,19.0998,VALID,293,VALID,1.17773,
2015-01-10, 00:22:04,VALID,919.254,VALID,0,VALID,96.9622,VALID,0,VALID,19.0593,VALID,223,VALID,1.01484,
2015-01-10, 00:23:04,VALID,919.296,VALID,0,VALID,96.9394,VALID,0,VALID,19.0803,VALID,257,VALID,1.17734,
2015-01-10, 00:24:04,VALID,919.276,VALID,0,VALID,96.9394,VALID,0,VALID,19.0413,VALID,258,VALID,1.49492,
2015-01-10, 00:25:04,VALID,919.217,VALID,0,VALID,96.9622,VALID,0,VALID,19.0413,VALID,245,VALID,1.22461,
2015-01-10, 00:26:04,VALID,919.24,VALID,0,VALID,96.9546,VALID,0,VALID,19.0427,VALID,252,VALID,1.41992,
2015-01-10, 00:27:04,VALID,919.241,VALID,0,VALID,96.9851,VALID,0,VALID,19.0023,VALID,277,VALID,0.574609,
2015-01-10, 00:28:04,VALID,919.241,VALID,0,VALID,97.0232,VALID,0,VALID,19.0218,VALID,287,VALID,1.15781,
2015-01-10, 00:29:04,VALID,919.207,VALID,0,VALID,97.0537,VALID,0,VALID,19.0023,VALID,253,VALID,1.32187,
2015-01-10, 00:30:04,VALID,919.183,VALID,0.2,VALID,97.0461,VALID,0,VALID,18.9828,VALID,255,VALID,0.621094,
2015-01-10, 00:31:04,VALID,919.19,VALID,0,VALID,97.1147,VALID,0,VALID,18.9828,VALID,260,VALID,1.12617,
2015-01-10, 00:32:04,VALID,919.2,VALID,0,VALID,97.1376,VALID,0,VALID,18.9633,VALID,252,VALID,1.28359,
2015-01-10, 00:33:04,VALID,919.201,VALID,0,VALID,97.1681,VALID,0,VALID,18.9438,VALID,253,VALID,1.20234,
2015-01-10, 00:34:04,VALID,919.196,VALID,0.2,VALID,97.1833,VALID,0,VALID,18.9633,VALID,228,VALID,1.51406,
2015-01-10, 00:35:04,VALID,919.21,VALID,0,VALID,97.2519,VALID,0,VALID,18.9438,VALID,245,VALID,1.81602,
2015-01-10, 00:36:04,VALID,919.177,VALID,0,VALID,97.29,VALID,0,VALID,18.9243,VALID,250,VALID,1.81797,
2015-01-10, 00:37:04,VALID,919.15,VALID,0.2,VALID,97.3358,VALID,0,VALID,18.9243,VALID,255,VALID,1.3875,
2015-01-10, 00:38:04,VALID,919.12,VALID,0,VALID,97.3586,VALID,0,VALID,18.9243,VALID,245,VALID,1.6418,
2015-01-10, 00:39:04,VALID,919.133,VALID,0.2,VALID,97.3815,VALID,0,VALID,18.8853,VALID,247,VALID,1.17813,
2015-01-10, 00:40:04,VALID,919.095,VALID,0,VALID,97.4044,VALID,0,VALID,18.9048,VALID,242,VALID,1.24492,
2015-01-10, 00:41:04,VALID,919.1,VALID,0,VALID,97.4196,VALID,0,VALID,18.8824,VALID,263,VALID,0.931641,
2015-01-10, 00:42:04,VALID,919.096,VALID,0,VALID,97.4349,VALID,0.107441,VALID,18.9034,VALID,243,VALID,0,
2015-01-10, 00:43:04,VALID,919.093,VALID,0,VALID,97.4425,VALID,0.107441,VALID,18.9229,VALID,254,VALID,1.08633,
2015-01-10, 00:44:04,VALID,919.101,VALID,0,VALID,97.4425,VALID,0.107441,VALID,18.9034,VALID,261,VALID,0.664844,
2015-01-10, 00:45:04,VALID,919.11,VALID,0,VALID,97.4577,VALID,0,VALID,18.8839,VALID,255,VALID,1.15078,
2015-01-10, 00:46:04,VALID,919.127,VALID,0,VALID,97.4882,VALID,0,VALID,18.8839,VALID,240,VALID,0.947266,
2015-01-10, 00:47:04,VALID,919.129,VALID,0.2,VALID,97.5187,VALID,0,VALID,18.9048,VALID,242,VALID,1.04844,
2015-01-10, 00:48:04,VALID,919.111,VALID,0,VALID,97.534,VALID,0,VALID,18.8839,VALID,249,VALID,1.11563,
2015-01-10, 00:49:04,VALID,919.12,VALID,0,VALID,97.5264,VALID,0,VALID,18.8644,VALID,246,VALID,1.03437,
2015-01-10, 00:50:04,VALID,919.088,VALID,0,VALID,97.5721,VALID,0,VALID,18.8644,VALID,246,VALID,0.64375,
2015-01-10, 00:51:04,VALID,919.108,VALID,0,VALID,97.5873,VALID,0.107441,VALID,18.8644,VALID,251,VALID,0.0121094,
2015-01-10, 00:52:04,VALID,919.096,VALID,0,VALID,97.6331,VALID,0,VALID,18.8644,VALID,247,VALID,0,
2015-01-10, 00:53:04,VALID,919.061,VALID,0,VALID,97.656,VALID,0,VALID,18.8449,VALID,251,VALID,0.800391,
2015-01-10, 00:54:04,VALID,919.064,VALID,0,VALID,97.7093,VALID,0.107441,VALID,18.8449,VALID,257,VALID,0.691406,
2015-01-10, 00:55:04,VALID,919.076,VALID,0.2,VALID,97.7093,VALID,0,VALID,18.8449,VALID,243,VALID,0.719531,
2015-01-10, 00:56:04,VALID,919.025,VALID,0,VALID,97.7322,VALID,0,VALID,18.8254,VALID,216,VALID,0.796484,
2015-01-10, 00:57:04,VALID,919.016,VALID,0,VALID,97.7627,VALID,0,VALID,18.8449,VALID,258,VALID,0.7875,
2015-01-10, 00:58:04,VALID,919.029,VALID,0,VALID,97.7779,VALID,0.107441,VALID,18.8644,VALID,194,VALID,0,
2015-01-10, 00:59:04,VALID,919.028,VALID,0,VALID,97.8008,VALID,0,VALID,18.8644,VALID,184,VALID,0,
2015-01-10, 01:00:04,VALID,919.055,VALID,0,VALID,97.7932,VALID,0.107441,VALID,18.8629,VALID,257,VALID,1.08047,
2015-01-10, 01:01:04,VALID,919.033,VALID,0,VALID,97.8237,VALID,0.107441,VALID,18.8839,VALID,251,VALID,0.252344,
2015-01-10, 01:02:04,VALID,919.015,VALID,0.2,VALID,97.8389,VALID,0.107441,VALID,18.8824,VALID,251,VALID,0,
2015-01-10, 01:03:04,VALID,919.004,VALID,0,VALID,97.8313,VALID,0.107441,VALID,18.9034,VALID,191,VALID,0.834766,
2015-01-10, 01:04:04,VALID,919.022,VALID,0.2,VALID,97.8694,VALID,0,VALID,18.9034,VALID,190,VALID,0.673047,
2015-01-10, 01:05:04,VALID,918.991,VALID,0,VALID,97.8694,VALID,0,VALID,18.9034,VALID,190,VALID,0.196875,
2015-01-10, 01:06:04,VALID,918.991,VALID,0.2,VALID,97.8923,VALID,0.107441,VALID,18.9034,VALID,190,VALID,0.289453,
2015-01-10, 01:07:04,VALID,918.986,VALID,0.2,VALID,97.8999,VALID,0,VALID,18.8839,VALID,228,VALID,0.754687,
2015-01-10, 01:08:04,VALID,918.991,VALID,0.2,VALID,97.8999,VALID,0,VALID,18.8839,VALID,230,VALID,0.407422,
2015-01-10, 01:09:04,VALID,919.019,VALID,0,VALID,97.9152,VALID,0.107441,VALID,18.8839,VALID,230,VALID,0.507031,
2015-01-10, 01:10:04,VALID,919.036,VALID,0.2,VALID,97.9304,VALID,0.107441,VALID,18.9034,VALID,227,VALID,0.814453,
2015-01-10, 01:11:04,VALID,919.016,VALID,0,VALID,97.8923,VALID,0,VALID,18.8853,VALID,234,VALID,0.6625,
2015-01-10, 01:12:04,VALID,918.967,VALID,0,VALID,97.938,VALID,0,VALID,18.9048,VALID,234,VALID,0,
2015-01-10, 01:13:04,VALID,918.948,VALID,0.2,VALID,97.9304,VALID,0,VALID,18.9048,VALID,234,VALID,0,
2015-01-10, 01:14:04,VALID,918.999,VALID,0,VALID,97.938,VALID,0,VALID,18.8839,VALID,234,VALID,0,
2015-01-10, 01:15:04,VALID,919.015,VALID,0,VALID,97.9456,VALID,0,VALID,18.8853,VALID,237,VALID,0,
2015-01-10, 01:16:04,VALID,919.022,VALID,0,VALID,97.9456,VALID,0,VALID,18.8658,VALID,237,VALID,0,
2015-01-10, 01:17:04,VALID,918.996,VALID,0.2,VALID,97.9609,VALID,0,VALID,18.8867,VALID,237,VALID,0,
2015-01-10, 01:18:04,VALID,918.944,VALID,0,VALID,97.9533,VALID,0,VALID,18.8853,VALID,315,VALID,0,
2015-01-10, 01:19:04,VALID,918.882,VALID,0,VALID,97.9609,VALID,0,VALID,18.7878,VALID,229,VALID,1.27969,
2015-01-10, 01:20:04,VALID,918.958,VALID,0.2,VALID,97.9304,VALID,0,VALID,18.8658,VALID,180,VALID,1.76836,
2015-01-10, 01:21:04,VALID,918.913,VALID,0,VALID,97.8923,VALID,0,VALID,18.9048,VALID,146,VALID,1.38477,
2015-01-10, 01:22:04,VALID,918.873,VALID,0,VALID,97.9152,VALID,0,VALID,18.8658,VALID,119,VALID,1.62344,
2015-01-10, 01:23:04,VALID,918.887,VALID,0.2,VALID,97.8542,VALID,0,VALID,18.8268,VALID,191,VALID,0.508984,
2015-01-10, 01:24:04,VALID,918.9,VALID,0,VALID,97.7779,VALID,0,VALID,18.8463,VALID,223,VALID,0.886328,
2015-01-10, 01:25:04,VALID,918.893,VALID,0,VALID,97.7093,VALID,0,VALID,18.8853,VALID,231,VALID,1.22383,
2015-01-10, 01:26:04,VALID,918.898,VALID,0,VALID,97.6788,VALID,0.107441,VALID,18.9034,VALID,252,VALID,0.986328,
2015-01-10, 01:27:04,VALID,918.84,VALID,0.2,VALID,97.6865,VALID,0.107441,VALID,18.9034,VALID,259,VALID,0.233203,
2015-01-10, 01:28:04,VALID,918.853,VALID,0,VALID,97.6941,VALID,0.107441,VALID,18.8839,VALID,223,VALID,1.47891,
2015-01-10, 01:29:04,VALID,918.842,VALID,0,VALID,97.6865,VALID,0,VALID,18.8073,VALID,211,VALID,1.71641,
2015-01-10, 01:30:04,VALID,918.875,VALID,0,VALID,97.6178,VALID,0,VALID,18.7864,VALID,228,VALID,0.505078,
2015-01-10, 01:31:04,VALID,918.833,VALID,0,VALID,97.5569,VALID,0,VALID,18.7474,VALID,206,VALID,1.11875,
2015-01-10, 01:32:04,VALID,918.831,VALID,0,VALID,97.4196,VALID,0,VALID,18.7293,VALID,220,VALID,1.66758,
2015-01-10, 01:33:04,VALID,918.806,VALID,0,VALID,97.2672,VALID,0,VALID,18.7098,VALID,212,VALID,1.96094,
2015-01-10, 01:34:04,VALID,918.816,VALID,0,VALID,97.1452,VALID,0,VALID,18.7084,VALID,220,VALID,1.65742,
2015-01-10, 01:35:04,VALID,918.828,VALID,0,VALID,97.0766,VALID,0,VALID,18.7279,VALID,231,VALID,1.43008,
2015-01-10, 01:36:04,VALID,918.793,VALID,0,VALID,96.9927,VALID,0,VALID,18.7279,VALID,254,VALID,1.54375,
2015-01-10, 01:37:04,VALID,918.776,VALID,0,VALID,96.9698,VALID,0,VALID,18.7488,VALID,260,VALID,1.10859,
2015-01-10, 01:38:04,VALID,918.786,VALID,0,VALID,96.9851,VALID,0,VALID,18.6889,VALID,248,VALID,1.90234,
2015-01-10, 01:39:04,VALID,918.754,VALID,0,VALID,96.8936,VALID,0,VALID,18.6903,VALID,243,VALID,1.15781,
2015-01-10, 01:40:04,VALID,918.738,VALID,0.2,VALID,96.8784,VALID,0,VALID,18.6889,VALID,244,VALID,1.39453,
2015-01-10, 01:41:04,VALID,918.629,VALID,0,VALID,96.886,VALID,0,VALID,18.6903,VALID,258,VALID,0.851172,
2015-01-10, 01:42:04,VALID,918.619,VALID,0,VALID,96.9012,VALID,0.107441,VALID,18.6889,VALID,258,VALID,0.213281,
2015-01-10, 01:43:04,VALID,918.64,VALID,0,VALID,96.9165,VALID,0,VALID,18.6694,VALID,258,VALID,0.496875,
2015-01-10, 01:44:04,VALID,918.615,VALID,0,VALID,96.9241,VALID,0,VALID,18.6499,VALID,254,VALID,0.583203,
2015-01-10, 01:45:04,VALID,918.63,VALID,0,VALID,96.9012,VALID,0.107441,VALID,18.6499,VALID,247,VALID,0.533984,
2015-01-10, 01:46:04,VALID,918.569,VALID,0,VALID,96.9012,VALID,0,VALID,18.6499,VALID,257,VALID,0.223438,
2015-01-10, 01:47:04,VALID,918.582,VALID,0,VALID,96.8936,VALID,0,VALID,18.6903,VALID,226,VALID,0.805859,
2015-01-10, 01:48:04,VALID,918.577,VALID,0,VALID,96.8631,VALID,0,VALID,18.6694,VALID,190,VALID,0.503516,
2015-01-10, 01:49:04,VALID,918.566,VALID,0,VALID,96.8631,VALID,0,VALID,18.7098,VALID,198,VALID,0,
2015-01-10, 01:50:04,VALID,918.56,VALID,0,VALID,96.8784,VALID,0,VALID,18.6889,VALID,198,VALID,0,
2015-01-10, 01:51:04,VALID,918.582,VALID,0,VALID,96.9165,VALID,0,VALID,18.7098,VALID,198,VALID,0,
2015-01-10, 01:52:04,VALID,918.497,VALID,0,VALID,96.9165,VALID,0.107441,VALID,18.6499,VALID,156,VALID,0,
2015-01-10, 01:53:04,VALID,918.542,VALID,0,VALID,96.947,VALID,0.107441,VALID,18.6694,VALID,253,VALID,0.764453,
2015-01-10, 01:54:04,VALID,918.538,VALID,0,VALID,96.9851,VALID,0.107441,VALID,18.6708,VALID,253,VALID,0,
2015-01-10, 01:55:04,VALID,918.527,VALID,0,VALID,97.0156,VALID,0,VALID,18.6513,VALID,253,VALID,0,
2015-01-10, 01:56:04,VALID,918.504,VALID,0,VALID,97.0994,VALID,0,VALID,18.6499,VALID,253,VALID,0,
2015-01-10, 01:57:04,VALID,918.505,VALID,0,VALID,97.1681,VALID,0,VALID,18.6304,VALID,276,VALID,0,
2015-01-10, 01:58:04,VALID,918.489,VALID,0,VALID,97.2367,VALID,0,VALID,18.6499,VALID,277,VALID,0,
2015-01-10, 01:59:04,VALID,918.475,VALID,0,VALID,97.3205,VALID,0,VALID,18.6903,VALID,276,VALID,0,
2015-01-10, 02:00:04,VALID,918.444,VALID,0,VALID,97.3891,VALID,0.107441,VALID,18.6694,VALID,276,VALID,0,
2015-01-10, 02:01:04,VALID,918.417,VALID,0,VALID,97.4501,VALID,0,VALID,18.6889,VALID,276,VALID,0,
2015-01-10, 02:02:04,VALID,918.368,VALID,0,VALID,97.534,VALID,0,VALID,18.7084,VALID,276,VALID,0,
2015-01-10, 02:03:04,VALID,918.34,VALID,0,VALID,97.5569,VALID,0,VALID,18.6889,VALID,276,VALID,0,
2015-01-10, 02:04:04,VALID,918.299,VALID,0,VALID,97.6178,VALID,0,VALID,18.7084,VALID,276,VALID,0,
2015-01-10, 02:05:04,VALID,918.231,VALID,0,VALID,97.6483,VALID,0,VALID,18.6903,VALID,276,VALID,0,
2015-01-10, 02:06:04,VALID,918.242,VALID,0,VALID,97.6712,VALID,0,VALID,18.6903,VALID,32,VALID,0,
2015-01-10, 02:07:04,VALID,918.183,VALID,0,VALID,97.7017,VALID,0,VALID,18.6694,VALID,20,VALID,0,
2015-01-10, 02:08:04,VALID,918.155,VALID,0,VALID,97.7474,VALID,0,VALID,18.7098,VALID,20,VALID,0,
2015-01-10, 02:09:04,VALID,918.132,VALID,0,VALID,97.7932,VALID,0.107441,VALID,18.6889,VALID,20,VALID,0,
2015-01-10, 02:10:04,VALID,918.161,VALID,0,VALID,97.7779,VALID,0,VALID,18.6889,VALID,20,VALID,0,
2015-01-10, 02:11:04,VALID,918.158,VALID,0,VALID,97.8313,VALID,0.107441,VALID,18.6889,VALID,20,VALID,0,
2015-01-10, 02:12:04,VALID,918.112,VALID,0,VALID,97.8542,VALID,0,VALID,18.7293,VALID,20,VALID,0,
2015-01-10, 02:13:04,VALID,918.065,VALID,0,VALID,97.8694,VALID,0,VALID,18.7279,VALID,20,VALID,0,
2015-01-10, 02:14:04,VALID,918.07,VALID,0,VALID,97.8999,VALID,0,VALID,18.7279,VALID,21,VALID,0,
2015-01-10, 02:15:04,VALID,918.023,VALID,0,VALID,97.8999,VALID,0,VALID,18.6889,VALID,21,VALID,0,
2015-01-10, 02:16:04,VALID,918.028,VALID,0,VALID,97.9304,VALID,0.107441,VALID,18.7084,VALID,12,VALID,0,
2015-01-10, 02:17:04,VALID,918.024,VALID,0,VALID,97.938,VALID,0,VALID,18.7084,VALID,21,VALID,0,
2015-01-10, 02:18:04,VALID,918.006,VALID,0,VALID,97.9304,VALID,0,VALID,18.7084,VALID,9,VALID,0,
2015-01-10, 02:19:04,VALID,918.004,VALID,0,VALID,97.9609,VALID,0,VALID,18.7098,VALID,10,VALID,0,
2015-01-10, 02:20:04,VALID,918.017,VALID,0,VALID,97.9761,VALID,0,VALID,18.7084,VALID,9,VALID,0,
2015-01-10, 02:21:04,VALID,917.965,VALID,0,VALID,97.9761,VALID,0,VALID,18.6889,VALID,9,VALID,0,
2015-01-10, 02:22:04,VALID,917.981,VALID,0,VALID,97.9838,VALID,0,VALID,18.6889,VALID,12,VALID,0,
2015-01-10, 02:23:04,VALID,917.99,VALID,0,VALID,97.999,VALID,0.107441,VALID,18.6889,VALID,10,VALID,0,
2015-01-10, 02:24:04,VALID,917.993,VALID,0,VALID,97.999,VALID,0.107441,VALID,18.7279,VALID,13,VALID,0,
2015-01-10, 02:25:04,VALID,917.981,VALID,0,VALID,98.0143,VALID,0,VALID,18.7279,VALID,29,VALID,0,
2015-01-10, 02:26:04,VALID,917.936,VALID,0,VALID,98.0295,VALID,0,VALID,18.7308,VALID,25,VALID,0,
2015-01-10, 02:27:04,VALID,917.938,VALID,0,VALID,98.0371,VALID,0,VALID,18.6708,VALID,356,VALID,0,
2015-01-10, 02:28:04,VALID,917.964,VALID,0,VALID,98.0371,VALID,0,VALID,18.6708,VALID,356,VALID,0,
2015-01-10, 02:29:04,VALID,917.884,VALID,0,VALID,98.0371,VALID,0,VALID,18.6903,VALID,19,VALID,0,
2015-01-10, 02:30:04,VALID,917.893,VALID,0,VALID,98.06,VALID,0,VALID,18.7098,VALID,23,VALID,0,
2015-01-10, 02:31:04,VALID,917.87,VALID,0,VALID,98.0524,VALID,0,VALID,18.7098,VALID,16,VALID,0,
2015-01-10, 02:32:04,VALID,917.896,VALID,0,VALID,98.0448,VALID,0,VALID,18.6903,VALID,12,VALID,0,
2015-01-10, 02:33:04,VALID,917.862,VALID,0,VALID,98.0829,VALID,0,VALID,18.7113,VALID,12,VALID,0,
2015-01-10, 02:34:04,VALID,917.877,VALID,0,VALID,98.0524,VALID,0,VALID,18.7293,VALID,12,VALID,0,
2015-01-10, 02:35:04,VALID,917.912,VALID,0,VALID,98.0752,VALID,0,VALID,18.7697,VALID,12,VALID,0,
2015-01-10, 02:36:04,VALID,917.937,VALID,0,VALID,98.0829,VALID,0,VALID,18.7293,VALID,11,VALID,0,
2015-01-10, 02:37:04,VALID,917.903,VALID,0,VALID,98.1057,VALID,0,VALID,18.7308,VALID,278,VALID,0,
2015-01-10, 02:38:04,VALID,917.913,VALID,0,VALID,98.0905,VALID,0,VALID,18.7113,VALID,297,VALID,0,
2015-01-10, 02:39:04,VALID,917.938,VALID,0,VALID,98.0981,VALID,0,VALID,18.6918,VALID,257,VALID,0,
2015-01-10, 02:40:04,VALID,917.905,VALID,0,VALID,98.1134,VALID,0,VALID,18.6903,VALID,261,VALID,0,
2015-01-10, 02:41:04,VALID,917.83,VALID,0,VALID,98.0981,VALID,0.107441,VALID,18.6889,VALID,11,VALID,0.728125,
2015-01-10, 02:42:04,VALID,917.857,VALID,0,VALID,98.1286,VALID,0,VALID,18.6889,VALID,358,VALID,0,
2015-01-10, 02:43:04,VALID,917.805,VALID,0,VALID,98.1362,VALID,0,VALID,18.6304,VALID,16,VALID,0,
2015-01-10, 02:44:04,VALID,917.822,VALID,0,VALID,98.1286,VALID,0,VALID,18.6708,VALID,22,VALID,0,
2015-01-10, 02:45:04,VALID,917.793,VALID,0,VALID,98.1515,VALID,0,VALID,18.6499,VALID,22,VALID,0,
2015-01-10, 02:46:04,VALID,917.839,VALID,0,VALID,98.121,VALID,0.107441,VALID,18.6694,VALID,22,VALID,0,
2015-01-10, 02:47:04,VALID,917.823,VALID,0,VALID,98.121,VALID,0,VALID,18.6903,VALID,285,VALID,0,
2015-01-10, 02:48:04,VALID,917.792,VALID,0,VALID,98.1362,VALID,0,VALID,18.6903,VALID,262,VALID,0,
2015-01-10, 02:49:04,VALID,917.762,VALID,0,VALID,98.1439,VALID,0,VALID,18.7098,VALID,249,VALID,0,
2015-01-10, 02:50:04,VALID,917.754,VALID,0,VALID,98.1743,VALID,0,VALID,18.6694,VALID,11,VALID,0,
2015-01-10, 02:51:04,VALID,917.771,VALID,0,VALID,98.1591,VALID,0,VALID,18.6694,VALID,3,VALID,0,
2015-01-10, 02:52:04,VALID,917.77,VALID,0,VALID,98.1515,VALID,0,VALID,18.6513,VALID,357,VALID,0,
2015-01-10, 02:53:04,VALID,917.77,VALID,0,VALID,98.1743,VALID,0,VALID,18.6304,VALID,357,VALID,0,
2015-01-10, 02:54:04,VALID,917.755,VALID,0,VALID,98.1743,VALID,0,VALID,18.6513,INVALID,360,VALID,0,
2015-01-10, 02:55:04,VALID,917.709,VALID,0,VALID,98.1667,VALID,0,VALID,18.6499,VALID,357,VALID,0,
2015-01-10, 02:56:04,VALID,917.693,VALID,0,VALID,98.1591,VALID,0,VALID,18.6513,VALID,358,VALID,0,
2015-01-10, 02:57:04,VALID,917.699,VALID,0,VALID,98.1743,VALID,0,VALID,18.6513,VALID,360,VALID,0,
2015-01-10, 02:58:04,VALID,917.698,VALID,0,VALID,98.1972,VALID,0,VALID,18.5929,VALID,25,VALID,0.0460938,
2015-01-10, 02:59:04,VALID,917.688,VALID,0,VALID,98.1896,VALID,0,VALID,18.5748,VALID,348,VALID,0,
2015-01-10, 03:00:04,VALID,917.706,VALID,0,VALID,98.1972,VALID,0,VALID,18.5748,VALID,357,VALID,0,
2015-01-10, 03:01:04,VALID,917.722,VALID,0,VALID,98.1972,VALID,0,VALID,18.5539,VALID,3,VALID,0,
2015-01-10, 03:02:04,VALID,917.724,VALID,0,VALID,98.1896,VALID,0,VALID,18.5539,VALID,21,VALID,0,
2015-01-10, 03:03:04,VALID,917.698,VALID,0,VALID,98.1896,VALID,0,VALID,18.5734,VALID,20,VALID,0.178516,
2015-01-10, 03:04:04,VALID,917.707,VALID,0,VALID,98.2125,VALID,0,VALID,18.5929,VALID,22,VALID,0.238672,
2015-01-10, 03:05:04,VALID,917.691,VALID,0,VALID,98.2048,VALID,0,VALID,18.5734,VALID,8,VALID,0,
2015-01-10, 03:06:04,VALID,917.719,VALID,0,VALID,98.1972,VALID,0,VALID,18.5539,VALID,315,VALID,0,
2015-01-10, 03:07:04,VALID,917.692,VALID,0,VALID,98.2048,VALID,0,VALID,18.5344,VALID,357,VALID,0,
2015-01-10, 03:08:04,VALID,917.697,VALID,0,VALID,98.2048,VALID,0,VALID,18.5149,VALID,353,VALID,0,
2015-01-10, 03:09:04,VALID,917.688,VALID,0,VALID,98.2125,VALID,0,VALID,18.5344,VALID,19,VALID,0,
2015-01-10, 03:10:04,VALID,917.677,VALID,0,VALID,98.2048,VALID,0,VALID,18.5149,VALID,19,VALID,0,
2015-01-10, 03:11:04,VALID,917.696,VALID,0,VALID,98.2125,VALID,0,VALID,18.5358,VALID,4,VALID,0,
2015-01-10, 03:12:04,VALID,917.686,VALID,0,VALID,98.2125,VALID,0,VALID,18.5344,VALID,360,VALID,0.386328,
2015-01-10, 03:13:04,VALID,917.705,VALID,0,VALID,98.2277,VALID,0,VALID,18.5358,VALID,3,VALID,0.908594,
2015-01-10, 03:14:04,VALID,917.709,VALID,0,VALID,98.2125,VALID,0,VALID,18.5344,VALID,351,VALID,0.794141,
2015-01-10, 03:15:04,VALID,917.718,VALID,0,VALID,98.2125,VALID,0,VALID,18.4954,VALID,301,VALID,0.856641,
2015-01-10, 03:16:04,VALID,917.704,VALID,0,VALID,98.2277,VALID,0,VALID,18.4968,VALID,309,VALID,0.507813,
2015-01-10, 03:17:04,VALID,917.748,VALID,0,VALID,98.2353,VALID,0,VALID,18.5149,VALID,12,VALID,1.05078,
2015-01-10, 03:18:04,VALID,917.699,VALID,0,VALID,98.2201,VALID,0,VALID,18.5149,VALID,21,VALID,1.27305,
2015-01-10, 03:19:04,VALID,917.689,VALID,0,VALID,98.2277,VALID,0,VALID,18.5358,VALID,13,VALID,1.58906,
2015-01-10, 03:20:04,VALID,917.677,VALID,0,VALID,98.2353,VALID,0,VALID,18.5163,VALID,12,VALID,1.52773,
2015-01-10, 03:21:04,VALID,917.708,VALID,0,VALID,98.2353,VALID,0,VALID,18.5163,VALID,357,VALID,1.00117,
2015-01-10, 07:45:04,VALID,920.787,VALID,0,VALID,98.2658,VALID,81.0106,VALID,18.9438,VALID,3,VALID,0.919922,
2015-01-10, 07:46:04,VALID,919.438,VALID,0,VALID,98.2658,VALID,90.0357,VALID,18.9828,VALID,347,VALID,0,
2015-01-10, 07:47:04,VALID,919.636,VALID,0,VALID,98.243,VALID,87.8869,VALID,18.9828,VALID,352,VALID,1.56797,
2015-01-10, 07:48:04,VALID,919.761,VALID,0,VALID,98.2582,VALID,85.738,VALID,18.9814,VALID,354,VALID,1.67227,
2015-01-10, 07:49:04,VALID,919.413,VALID,0,VALID,98.2582,VALID,91.6473,VALID,19.0218,VALID,337,VALID,0.887891,
2015-01-10, 07:50:04,VALID,919.21,VALID,0,VALID,98.2506,VALID,99.5979,VALID,19.0608,VALID,345,VALID,1.14492,
2015-01-10, 07:51:04,VALID,919.203,VALID,0,VALID,98.2277,VALID,97.3417,VALID,19.0803,VALID,6,VALID,1.43711,
2015-01-10, 07:52:04,VALID,919.22,VALID,0,VALID,98.2277,VALID,100.028,VALID,19.1178,VALID,11,VALID,0.871094,
2015-01-10, 07:53:04,VALID,919.371,VALID,0,VALID,98.2048,VALID,93.5812,VALID,19.1778,VALID,3,VALID,1.0793,
2015-01-10, 07:54:04,VALID,919.291,VALID,0,VALID,98.1972,VALID,98.4161,VALID,19.1958,VALID,330,VALID,1.06367,
2015-01-10, 07:55:04,VALID,920.697,VALID,0,VALID,98.2277,VALID,83.3743,VALID,19.1763,VALID,330,VALID,1.45469,
2015-01-10, 07:59:04,VALID,918.338,VALID,0,VALID,98.2201,VALID,73.9195,VALID,19.2363,VALID,5,VALID,0.485156,
2015-01-10, 08:00:04,INVALID,920.476,VALID,0,VALID,98.2125,VALID,84.1264,VALID,19.2753,VALID,7,VALID,1.26016,
2015-01-10, 08:01:04,VALID,919.647,VALID,0,VALID,98.2277,VALID,85.6306,VALID,19.2558,VALID,349,VALID,1.14297,
2015-01-10, 08:02:04,VALID,920.421,VALID,0,VALID,98.2125,VALID,80.5809,VALID,19.2738,VALID,34,VALID,1.31211,
2015-01-10, 08:03:04,VALID,921.43,VALID,0,VALID,98.2277,VALID,76.9279,VALID,19.2753,VALID,351,VALID,0.577344,
2015-01-10, 08:04:04,VALID,920.945,VALID,0,VALID,98.2125,VALID,76.8204,VALID,19.2558,VALID,1,VALID,1.15977,
2015-01-10, 08:05:04,VALID,921.254,VALID,0,VALID,98.2277,VALID,71.8781,VALID,19.2948,VALID,351,VALID,0.1625,
2015-01-10, 08:09:04,VALID,920.901,VALID,0,VALID,98.2506,VALID,80.2585,VALID,19.2933,VALID,327,VALID,0.659375,
2015-01-10, 08:10:04,VALID,920.685,VALID,0,VALID,98.2277,VALID,87.5645,VALID,19.3128,VALID,17,VALID,0.746484,
2015-01-10, 08:11:04,VALID,920.183,VALID,0,VALID,98.243,VALID,88.7464,VALID,19.3338,VALID,28,VALID,1.74258,
2015-01-10, 08:12:04,VALID,919.37,VALID,0,VALID,98.243,VALID,101.854,VALID,19.3533,VALID,12,VALID,1.13672,
2015-01-10, 08:13:04,VALID,919.346,VALID,0,VALID,98.2048,VALID,103.251,VALID,19.4103,VALID,33,VALID,0.389453,
2015-01-10, 08:14:04,VALID,919.331,VALID,0,VALID,98.1896,VALID,108.193,VALID,19.4493,VALID,19,VALID,1.30117,
2015-01-10, 08:15:04,VALID,919.349,VALID,0,VALID,98.1896,VALID,114.855,VALID,19.5288,VALID,11,VALID,1.05547,
2015-01-10, 08:16:04,VALID,919.342,VALID,0,VALID,98.1591,VALID,109.805,VALID,19.5273,VALID,32,VALID,0.782422,
2015-01-10, 08:17:04,VALID,919.353,VALID,0,VALID,98.1743,VALID,117.756,VALID,19.6068,VALID,24,VALID,1.16836,